SES-7 (PROTOSTAR 2)

Last updated on Sun Jun 21 2026 00:03:04 GMT+0000 (Coordinated Universal Time)

1 34941U 09027A 26171.41343206 -.00000349 00000+0 00000+0 0 9994 2 34941 0.0464 72.0603 0000445 282.4348 171.2077 1.00270419 62668
UTC large
Height (km)
Speed (km/s)
/
Latitude / Longitude
Inclination (degrees)
Orbital Period (minutes)
Azimuth
Elevation
Range (km)
Doppler Factor

Next 0 passes for location: London (51.5072 / 0.1276)

No passes found over London.
SES-7 (PROTOSTAR 2)